Location: Home
(42.5358°N, 72.7383°W)
Time: 06:57:16
(UTC-05:00)

Courier 1B Rocket - Pass Details

Date: 05 December 2021
Orbit: 920 x 1202 km, 28.2° (Epoch: 25 January)

Event Time Altitude Azimuth Distance (km) Brightness Sun altitude
Rises 02:19:55 0° 251° (WSW) 3,551 - -51.5°
Reaches altitude 10° 02:24:02 10° 225° (SW) 2,603 - -50.8°
Maximum altitude 02:26:49 13° 198° (SSW) 2,379 - -50.3°
Drops below altitude 10° 02:29:38 10° 171° (S) 2,623 - -49.8°
Sets 02:33:49 0° 146° (SE) 3,602 - -49.1°
